Other Public Products
Issued by NWS Grand Forks, ND

Home | Current Version | Previous Version | Graphics & Text | Print | Product List | Glossary On
Versions: 1 2 3 4 5 6 7 8 9 10 11 12 13 14 15 16 17 18 19 20 21 22 23 24 25 26 27 28 29 30 31 32 33 34 35 36 37 38 39 40 41 42 43 44 45 46 47 48 49 50
000
FPUS83 KFGF 310031
OPUFGF
PRAIRIE TO PINES WEATHER ROUNDUP
NATIONAL WEATHER SERVICE EASTERN NORTH DAKOTA/GRAND FORKS ND
700 PM CDT SAT AUG 30 2014

 **SATELLITE DATA USED TO AUGMENT SKY COVER AT AUTOMATED STATIONS**
 *****  WEATHER ACROSS EASTERN NORTH DAKOTA  *****

CITY           SKY/WX    TMP DP  RH WIND       PRES   REMARKS
GRAND FORKS    MOSUNNY   73  54  51 SE8       29.80F
6HR MIN TEMP:  69; 6HR MAX TEMP:  74;

GRAND FORKS AF SUNNY     71  54  55 S9        29.81F
GRAND CITY NWS   N/A     70 N/A N/A E7          N/A
BUXTON           N/A     70  60  70 SE5         N/A
DEVILS LAKE    MOSUNNY   70  54  56 SE12      29.76F
6HR MIN TEMP:  64; 6HR MAX TEMP:  72;

FARGO          CLOUDY    68  59  73 S8        29.81F
6HR MIN TEMP:  67; 6HR MAX TEMP:  73;

WAHPETON ARPT  PTCLDY    63  57  82 SE8       29.83F
$$

 *****  WEATHER ACROSS CENTRAL AND WESTERN NORTH DAKOTA  *****

CITY           SKY/WX    TMP DP  RH WIND       PRES   REMARKS
JAMESTOWN      MOSUNNY   69  56  62 SE8       29.79F
6HR MIN TEMP:  67; 6HR MAX TEMP:  72;

BISMARCK       MOSUNNY   74  56  53 SE16      29.73F
6HR MIN TEMP:  69; 6HR MAX TEMP:  76;

MINOT          NOT AVBL
MINOT AFB      PTSUNNY   70  54  57 SE10      29.71F
6HR MIN TEMP:  69; 6HR MAX TEMP:  74;

GARRISON         N/A     69  57  65 SE7       29.73S
6HR MIN TEMP:  68; 6HR MAX TEMP:  74;

WILLISTON      CLOUDY    64  61  90 N13       29.69R
6HR MIN TEMP:  64; 6HR MAX TEMP:  75; 6HR PCP:  0.12;

DICKINSON      PTSUNNY   71  58  63 SE12      29.69F
6HR MIN TEMP:  70; 6HR MAX TEMP:  77;

HETTINGER      MOSUNNY   75  59  57 E13       29.71F
6HR MIN TEMP:  70; 6HR MAX TEMP:  78;

$$

 *****  OTHER OBSERVATIONS NORTHEAST NORTH DAKOTA  *****

CITY           SKY/WX    TMP DP  RH WIND       PRES   REMARKS
WALHALLA         N/A     68  50  52 S5        29.80S
LANGDON        FAIR      66  46  48 SE12      29.80S
CAVALIER       FAIR      68  50  52 SE5       29.79F
GRAFTON        FAIR      68  50  52 SE8       29.79F
CANDO          FAIR      68  54  60 SE9       29.78S
FORT TOTTEN    NOT AVBL
ROLLA          FAIR      64  54  68 S13       29.79S
RUGBY          FAIR      68  54  60 S8        29.75F
 ***** THE ABOVE OBSERVATIONS ARE NON NWS ARE NOT QUALITY
        CONTROLLED AND MAY MIS-REPORT RAIN FOR SNOW...
$$

 *****  OTHER OBSERVATIONS SOUTHEAST NORTH DAKOTA *****

CITY           SKY/WX    TMP DP  RH WIND       PRES   REMARKS
COOPERSTOWN    NOT AVBL
VALLEY CITY    FAIR      68  59  73 SE9       29.81S
OAKES            N/A     68  63  83 E9        29.79F
GWINNER        CLEAR     66  61  82 E7        29.82F
BUFFALO          N/A     67  55  66 CALM        N/A
WYNDMERE       NOT AVBL
 ***** THE ABOVE OBSERVATIONS ARE NON NWS ARE NOT QUALITY
       CONTROLLED AND MAY MIS-REPORT RAIN FOR SNOW...
$$

  *****  WEATHER ACROSS NORTHERN MINNESOTA  *****

CITY           SKY/WX    TMP DP  RH WIND       PRES   REMARKS
FLAG ISLAND    CLEAR     66  50  55 CALM      29.84F
WARROAD        SUNNY     66  57  72 NE9       29.85F
ROSEAU         SUNNY     66  55  68 E8        29.85R
HALLOCK        SUNNY     66  54  63 SE7       29.80F
THF RVR FALLS  SUNNY     66  52  59 E7        29.84S
6HR MIN TEMP:  66; 6HR MAX TEMP:  72;

HALSTAD          N/A     67  57  70 S10         N/A
FOSSTON        CLOUDY    63  55  77 S6        29.86S
BAUDETTE       CLEAR     67  56  67 N7        29.85F
6HR MIN TEMP:  67; 6HR MAX TEMP:  71;

WASKISH        CLEAR     66  57  72 S3        29.86R
CROOKSTON      PTSUNNY   70  57  64 SE9       29.81F
$$
  *****  WEATHER ACROSS CENTRAL AND WEST MINNESOTA  *****

CITY           SKY/WX    TMP DP  RH WIND       PRES   REMARKS
BEMIDJI        CLOUDY    64  58  81 SE8       29.87R
PARK RAPIDS    CLOUDY    62  60  93 CALM      29.87S FOG
6HR MIN TEMP:  60; 6HR MAX TEMP:  63;

WADENA         CLOUDY    63  61  94 E5        29.86F
DETROIT LAKES  PTSUNNY   64  59  82 E5        29.86F
MOORHEAD       CLOUDY    68  64  88 S3        29.83F
FERGUS FALLS   MOSUNNY   64  57  77 S5        29.84F
ELBOW LAKE     CLOUDY    64  60  87 S6        29.85S
6HR MIN TEMP:  62; 6HR MAX TEMP:  65;

MORRIS MN      SUNNY     66  61  82 CALM      29.85S
STAPLES        MOCLDY    64  61  88 CALM      29.86F
WHEATON        SUNNY     63  57  82 E6        29.85F
$$
  *****  WEATHER ELSEWHERE ACROSS MINNESOTA  *****

CITY           SKY/WX    TMP DP  RH WIND       PRES   REMARKS
DULUTH         MOCLDY    62  57  83 E9        29.89S
6HR MIN TEMP:  62; 6HR MAX TEMP:  68; 6HR PCP:  0.01;

INTRNTL FALLS  CLEAR     69  51  52 E5        29.86F
6HR MIN TEMP:  66; 6HR MAX TEMP:  71;

ELY            PTCLDY    61  57  88 CALM      29.90S
CLOQUET        MOCLDY    63  59  88 E5        29.89S
BRAINERD       MOCLDY    67  62  84 N6        29.87S
6HR MIN TEMP:  63; 6HR MAX TEMP:  69;

HIBBING        CLOUDY    66  58  75 NE3       29.89S
6HR MIN TEMP:  64; 6HR MAX TEMP:  66;

ALEXANDRIA     PTSUNNY   69  62  78 W5        29.87S
6HR MIN TEMP:  65; 6HR MAX TEMP:  69;

SAINT CLOUD    PTCLDY    73  64  73 S5        29.85S
6HR MIN TEMP:  71; 6HR MAX TEMP:  75; 6HR PCP: TRACE;

MINNEAPOLIS    MOCLDY    73  61  65 E9        29.84F
6HR MIN TEMP:  72; 6HR MAX TEMP:  77;

$$

  *****  WEATHER ACROSS SOUTH DAKOTA  *****

CITY           SKY/WX    TMP DP  RH WIND       PRES   REMARKS
SIOUX FALLS    SUNNY     70  61  73 S9        29.85F
6HR MIN TEMP:  68; 6HR MAX TEMP:  73;

BROOKINGS      NOT AVBL
WATERTOWN      MOSUNNY   68  59  73 SE7       29.84F
6HR MIN TEMP:  63; 6HR MAX TEMP:  70;

HURON          SUNNY     71  58  63 SE8       29.81S
6HR MIN TEMP:  66; 6HR MAX TEMP:  72;

SISSETON         N/A     67  62  84 E7        29.81F
ABERDEEN       SUNNY     69  60  73 SE9       29.80F
6HR MIN TEMP:  66; 6HR MAX TEMP:  71;

MITCHELL       SUNNY     72  60  66 S9        29.82F
PIERRE         SUNNY     77  62  59 SE20      29.71F
6HR MIN TEMP:  71; 6HR MAX TEMP:  80;

MOBRIDGE       SUNNY     74  58  57 SE14G24   29.71F
RAPID CITY     MOSUNNY   78  54  43 SE7       29.65F
6HR MIN TEMP:  76; 6HR MAX TEMP:  89;

$$

  *****  SOME WEATHER IN NEARBY STATES *****

CITY           SKY/WX    TMP DP  RH WIND       PRES   REMARKS
GLASGOW MT     PTSUNNY   67  55  65 S9        29.69F
6HR MIN TEMP:  62; 6HR MAX TEMP:  68; 6HR PCP:  0.06;

GREAT FALLS MT MOSUNNY   74  34  23 W14       29.74F
6HR MIN TEMP:  61; 6HR MAX TEMP:  74; 6HR PCP: TRACE;

CHEYENNE WY    CLOUDY    68  46  45 W25G37    30.04S
6HR MIN TEMP:  62; 6HR MAX TEMP:  83; 6HR PCP:  0.02;

SCOTTSBLUFF NE PTSUNNY   85  42  22 S23G29    29.77F
6HR MIN TEMP:  83; 6HR MAX TEMP:  93;

OMAHA NE       SUNNY     80  64  58 SE8       29.86F
6HR MIN TEMP:  73; 6HR MAX TEMP:  81;

DES MOINES IA  PTCLDY    79  68  69 NW7       29.87S
6HR MIN TEMP:  79; 6HR MAX TEMP:  84;

DAVENPORT IA   CLEAR     77  68  73 W3        29.88R
6HR MIN TEMP:  77; 6HR MAX TEMP:  80;

CHICAGO IL     PTCLDY    80  63  55 W13       29.85R
6HR MIN TEMP:  80; 6HR MAX TEMP:  83;

EAU CLAIRE WI  CLOUDY    66  62  87 CALM      29.87R
6HR MIN TEMP:  66; 6HR MAX TEMP:  74;

LA CROSSE WI   PTCLDY    76  65  68 N8        29.84R
6HR MIN TEMP:  75; 6HR MAX TEMP:  78; 6HR PCP: TRACE;

$$

  *****  SOME NATIONAL WEATHER *****

CITY           SKY/WX    TMP DP  RH WIND       PRES   REMARKS
LA GUARDIA NY  CLOUDY    74  65  73 S14G20    30.15F
6HR MIN TEMP:  74; 6HR MAX TEMP:  77;




USA.gov is the U.S. government's official web portal to all federal, state and local government web resources and services.